User: anonymous   Login
Location: Caltech
(34.1382°N, 118.1253°W)
Time: 12:50:49
(UTC-08:00)
Language:

SEDSat Delta rocket - Orbit

View from above orbital plane
View from above orbital plane
View from above satellite
View from above satellite

Ground track
Ground track

The orbit data is extracted from the following two-line orbital elements,

1 25510U 98061C   17023.07634240  .00000179  00000-0  18152-4 0  9994
2 25510  31.4351 252.5107 0328615 234.2783 255.7929 14.37150905956428
Epoch (UTC): 23 January 2017 01:49:55
Eccentricity: 0.0328615
inclination: 31.4351°
perigee height: 533 km
apogee height: 1003 km
right ascension of ascending node: 252.5107°
argument of perigee: 234.2783°
revolutions per day: 14.37150905
mean anomaly at epoch: 255.7929°
orbit number at epoch: 95642

The dashed part of the orbit path shows where the satellite is in the earth's shadow,  

DLR